Location: Sungai Liu
(2.3667°N, 113.8667°E)
Time: 13:03:08
(UTC+00:00)

Ariane H10+ - Pass Details

Date: 20 May 2022
Orbit: 401 x 35998 km, 6.9° (Epoch: 05 July)

Event Time Altitude Azimuth Distance (km) Brightness Sun altitude
Rises 03:03:29 0° 271° (W) 12,250 8.9 64.1°
Reaches altitude 10° 03:11:02 10° 270° (W) 13,216 9.2 65.5°
Drops below altitude 10° 09:51:51 10° 262° (W) 36,175 12.8 7.7°
Enters shadow 12:57:32 84° 212° (SSW) 1,434 4.1 -35.3°
